FIN1AU EFHK-LGRP

Flight info

Callsign FIN1AU
Flight time 3h 26m
Altitude 34000
Route KOIVU Y123 LARTI DCT ORTAX DCT BERIL/N0454F330 DCT TOXAR DCT LIBGA/N0451F340 DCT ROBTU/N0451F350 DCT KENIN DCT TIXIP DCT LOMOS DCT WAK DCT NIKTI DCT STINO DCT MES UN139 LURUS UL995 CODIC
Aircraft A321/M-SDE3FGHIRWY/LB1

Departure

Time 2026-04-25 03:33
Airport Helsinki Vantaa Airport (EFHK)

Arrival

Time 2026-04-25 06:59
Airport Rhodes International Airport "Diagoras" (LGRP)
Time Latitude Longitude Altitude Speed Heading
2026-04-25 02:52 60.31804 24.96386 167 ft 0 kts 137°
2026-04-25 03:22 60.31809 24.96378 166 ft 4 kts 137°
2026-04-25 03:22 60.31828 24.96342 166 ft 3 kts 137°
2026-04-25 03:23 60.31843 24.96318 166 ft 4 kts 176°
2026-04-25 03:23 60.31859 24.96333 166 ft 3 kts 227°
2026-04-25 03:23 60.31878 24.96373 166 ft 4 kts 227°
2026-04-25 03:23 60.31886 24.96391 166 ft 0 kts 227°
2026-04-25 03:27 60.31883 24.96386 166 ft 1 kts 227°
2026-04-25 03:27 60.31872 24.96359 166 ft 5 kts 230°
2026-04-25 03:27 60.31851 24.96245 166 ft 13 kts 273°
2026-04-25 03:27 60.31912 24.96059 167 ft 20 kts 317°
2026-04-25 03:28 60.32022 24.95850 173 ft 24 kts 316°
2026-04-25 03:28 60.32111 24.95687 173 ft 28 kts 318°
2026-04-25 03:28 60.32298 24.95347 176 ft 21 kts 318°
2026-04-25 03:28 60.32376 24.95249 177 ft 20 kts 341°
2026-04-25 03:29 60.32543 24.95135 180 ft 18 kts 341°
2026-04-25 03:29 60.32626 24.95083 180 ft 19 kts 343°
2026-04-25 03:29 60.32753 24.95003 178 ft 20 kts 342°
2026-04-25 03:29 60.32889 24.94913 174 ft 18 kts 338°
2026-04-25 03:30 60.32974 24.94763 178 ft 15 kts 315°
2026-04-25 03:30 60.33046 24.94631 183 ft 12 kts 318°
2026-04-25 03:30 60.33097 24.94536 194 ft 8 kts 317°
2026-04-25 03:30 60.33125 24.94439 189 ft 9 kts 268°
2026-04-25 03:31 60.33089 24.94334 188 ft 5 kts 227°
2026-04-25 03:31 60.33080 24.94312 196 ft 0 kts 227°
2026-04-25 03:31 60.33079 24.94310 197 ft 1 kts 227°
2026-04-25 03:32 60.33026 24.94196 190 ft 39 kts 226°
2026-04-25 03:32 60.32673 24.93420 180 ft 108 kts 227°
2026-04-25 03:32 60.32028 24.92005 166 ft 163 kts 227°
2026-04-25 03:32 60.31241 24.90254 750 ft 168 kts 230°
2026-04-25 03:33 60.30542 24.88430 1655 ft 160 kts 246°
2026-04-25 03:33 60.30166 24.86344 2435 ft 159 kts 260°
2026-04-25 03:33 60.30035 24.84125 2993 ft 160 kts 266°
2026-04-25 03:33 60.30082 24.81846 3416 ft 166 kts 277°
2026-04-25 03:34 60.30268 24.79529 3892 ft 169 kts 278°
2026-04-25 03:34 60.30242 24.77170 4378 ft 171 kts 257°
2026-04-25 03:34 60.29800 24.74905 4795 ft 177 kts 248°
2026-04-25 03:34 60.29314 24.72566 5153 ft 186 kts 250°
2026-04-25 03:35 60.28824 24.70089 5555 ft 194 kts 250°
2026-04-25 03:35 60.28326 24.67513 5917 ft 202 kts 250°
2026-04-25 03:35 60.27788 24.64796 6155 ft 217 kts 250°
2026-04-25 03:35 60.27188 24.61833 6293 ft 240 kts 249°
2026-04-25 03:36 60.26529 24.58678 6812 ft 248 kts 249°
2026-04-25 03:36 60.25848 24.55471 7489 ft 249 kts 249°
2026-04-25 03:36 60.25125 24.52290 8229 ft 251 kts 244°
2026-04-25 03:36 60.24079 24.49429 8876 ft 259 kts 229°
2026-04-25 03:37 60.22606 24.47268 9589 ft 267 kts 212°
2026-04-25 03:37 60.20864 24.45923 10115 ft 278 kts 205°
2026-04-25 03:37 60.18992 24.44655 10517 ft 289 kts 204°
2026-04-25 03:37 60.17024 24.43344 10733 ft 308 kts 204°
2026-04-25 03:38 60.14927 24.41923 10869 ft 327 kts 204°
2026-04-25 03:38 60.12634 24.40858 10994 ft 353 kts 190°
2026-04-25 03:38 60.10096 24.41068 11129 ft 379 kts 174°
2026-04-25 03:38 60.07539 24.42846 11415 ft 399 kts 157°
2026-04-25 03:39 60.05061 24.45443 11951 ft 404 kts 156°
2026-04-25 03:39 60.02560 24.48044 12531 ft 407 kts 156°
2026-04-25 03:39 60.00024 24.50651 13129 ft 411 kts 156°
2026-04-25 03:39 59.97469 24.53259 13666 ft 414 kts 157°
2026-04-25 03:40 59.94890 24.55886 14180 ft 418 kts 157°
2026-04-25 03:40 59.92286 24.58540 14694 ft 422 kts 157°
2026-04-25 03:40 59.89656 24.61194 15208 ft 425 kts 159°
2026-04-25 03:40 59.86895 24.63251 15682 ft 423 kts 169°
2026-04-25 03:41 59.84010 24.64346 16154 ft 421 kts 179°
2026-04-25 03:41 59.81101 24.64462 16617 ft 418 kts 189°
2026-04-25 03:41 59.78239 24.63622 17086 ft 414 kts 198°
2026-04-25 03:41 59.75424 24.62274 17549 ft 417 kts 199°
2026-04-25 03:42 59.72594 24.60922 17973 ft 420 kts 199°
2026-04-25 03:42 59.69737 24.59569 18372 ft 423 kts 199°
2026-04-25 03:42 59.66869 24.58229 18770 ft 426 kts 198°
2026-04-25 03:42 59.63948 24.57041 19177 ft 430 kts 196°
2026-04-25 03:43 59.61028 24.56048 19553 ft 433 kts 194°
2026-04-25 03:43 59.58039 24.55148 19938 ft 436 kts 193°
2026-04-25 03:43 59.54990 24.54269 20337 ft 439 kts 193°
2026-04-25 03:43 59.51999 24.53397 20708 ft 441 kts 194°
2026-04-25 03:44 59.48964 24.52479 21080 ft 443 kts 194°
2026-04-25 03:44 59.45901 24.51522 21453 ft 445 kts 194°
2026-04-25 03:44 59.42839 24.50543 21825 ft 447 kts 194°
2026-04-25 03:44 59.39758 24.49543 22186 ft 450 kts 194°
2026-04-25 03:45 59.36664 24.48536 22551 ft 452 kts 194°
2026-04-25 03:45 59.33555 24.47529 22897 ft 454 kts 194°
2026-04-25 03:45 59.30425 24.46524 23222 ft 457 kts 194°
2026-04-25 03:45 59.27280 24.45520 23489 ft 459 kts 194°
2026-04-25 03:46 59.24114 24.44513 23787 ft 461 kts 194°
2026-04-25 03:46 59.20939 24.43511 24077 ft 463 kts 194°
2026-04-25 03:46 59.17752 24.42508 24371 ft 465 kts 194°
2026-04-25 03:46 59.14554 24.41504 24681 ft 466 kts 194°
2026-04-25 03:47 59.11346 24.40497 25097 ft 465 kts 194°
2026-04-25 03:47 59.08152 24.39500 25525 ft 464 kts 194°
2026-04-25 03:47 59.04972 24.38504 25952 ft 463 kts 194°
2026-04-25 03:47 59.01796 24.37508 26358 ft 462 kts 194°
2026-04-25 03:48 58.98628 24.36514 26774 ft 460 kts 194°
2026-04-25 03:48 58.95510 24.35538 27173 ft 460 kts 194°
2026-04-25 03:48 58.92357 24.34559 27588 ft 458 kts 194°
2026-04-25 03:48 58.89210 24.33585 28016 ft 457 kts 194°
2026-04-25 03:49 58.86071 24.32617 28425 ft 456 kts 194°
2026-04-25 03:49 58.82943 24.31621 28833 ft 455 kts 195°
2026-04-25 03:49 58.79841 24.30505 29247 ft 453 kts 196°
2026-04-25 03:49 58.76758 24.29299 29647 ft 451 kts 197°
2026-04-25 03:50 58.73690 24.28051 29996 ft 450 kts 197°
2026-04-25 03:50 58.70631 24.26805 30292 ft 450 kts 197°
2026-04-25 03:50 58.67564 24.25578 30578 ft 450 kts 197°
2026-04-25 03:50 58.64488 24.24375 30859 ft 451 kts 196°
2026-04-25 03:51 58.61413 24.23195 31143 ft 451 kts 196°
2026-04-25 03:51 58.58333 24.22028 31415 ft 451 kts 196°
2026-04-25 03:51 58.55250 24.20865 31691 ft 451 kts 196°
2026-04-25 03:51 58.52173 24.19707 31957 ft 452 kts 196°
2026-04-25 03:52 58.49083 24.18542 32235 ft 452 kts 196°
2026-04-25 03:52 58.45995 24.17374 32471 ft 452 kts 196°
2026-04-25 03:52 58.42907 24.16208 32639 ft 453 kts 196°
2026-04-25 03:52 58.39793 24.15032 32673 ft 457 kts 196°
2026-04-25 03:53 58.33550 24.12678 32668 ft 458 kts 196°
2026-04-25 03:53 58.27294 24.10337 32674 ft 458 kts 196°
2026-04-25 03:54 58.21033 24.08014 32674 ft 458 kts 196°
2026-04-25 03:54 58.14767 24.05689 32676 ft 459 kts 196°
2026-04-25 03:55 58.08498 24.03364 32683 ft 459 kts 196°
2026-04-25 03:55 58.02256 24.01049 32690 ft 460 kts 196°
2026-04-25 03:56 57.95965 23.98729 32692 ft 461 kts 196°
2026-04-25 03:56 57.89670 23.96438 32699 ft 461 kts 196°
2026-04-25 03:57 57.83366 23.94125 32700 ft 462 kts 196°
2026-04-25 03:57 57.77063 23.91828 32701 ft 462 kts 196°
2026-04-25 03:58 57.70743 23.89547 32704 ft 462 kts 196°
2026-04-25 03:58 57.64427 23.87252 32709 ft 463 kts 196°
2026-04-25 03:59 57.58102 23.84969 32711 ft 463 kts 196°
2026-04-25 03:59 57.51771 23.82706 32711 ft 464 kts 196°
2026-04-25 04:00 57.45431 23.80459 32717 ft 464 kts 196°
2026-04-25 04:00 57.39087 23.78188 32719 ft 464 kts 196°
2026-04-25 04:01 57.32749 23.75919 32723 ft 465 kts 196°
2026-04-25 04:01 57.26395 23.73675 32713 ft 465 kts 196°
2026-04-25 04:02 57.20034 23.71444 32717 ft 465 kts 196°
2026-04-25 04:02 57.13665 23.69204 32718 ft 466 kts 196°
2026-04-25 04:03 57.07277 23.66962 32718 ft 467 kts 196°
2026-04-25 04:03 57.00923 23.64750 32723 ft 468 kts 196°
2026-04-25 04:04 56.94515 23.62530 32708 ft 469 kts 196°
2026-04-25 04:04 56.88092 23.60305 32715 ft 470 kts 196°
2026-04-25 04:05 56.81663 23.58085 32710 ft 471 kts 196°
2026-04-25 04:05 56.75214 23.55870 32711 ft 472 kts 196°
2026-04-25 04:06 56.68756 23.53645 32715 ft 473 kts 196°
2026-04-25 04:06 56.62286 23.51418 32720 ft 474 kts 196°
2026-04-25 04:07 56.55798 23.49220 32720 ft 475 kts 196°
2026-04-25 04:07 56.49303 23.47019 32727 ft 475 kts 196°
2026-04-25 04:08 56.42841 23.44823 32720 ft 476 kts 196°
2026-04-25 04:08 56.36312 23.42631 32729 ft 477 kts 195°
2026-04-25 04:09 56.29732 23.40731 32731 ft 480 kts 193°
2026-04-25 04:09 56.23085 23.39126 32738 ft 482 kts 193°
2026-04-25 04:10 56.16440 23.37536 32734 ft 482 kts 193°
2026-04-25 04:10 56.09789 23.35833 32735 ft 483 kts 194°
2026-04-25 04:11 55.99794 23.33226 32725 ft 484 kts 193°
2026-04-25 04:12 55.93113 23.31531 32727 ft 486 kts 193°
2026-04-25 04:12 55.86410 23.29847 32726 ft 487 kts 193°
2026-04-25 04:13 55.79692 23.28156 32734 ft 488 kts 193°
2026-04-25 04:13 55.74101 23.26739 32729 ft 489 kts 193°
2026-04-25 04:14 55.67356 23.25037 32747 ft 489 kts 193°
2026-04-25 04:14 55.60600 23.23354 32746 ft 490 kts 193°
2026-04-25 04:15 55.53834 23.21668 32771 ft 491 kts 193°
2026-04-25 04:15 55.47054 23.19985 32764 ft 493 kts 193°
2026-04-25 04:16 55.40255 23.18305 32778 ft 494 kts 193°
2026-04-25 04:16 55.33446 23.16609 32767 ft 495 kts 193°
2026-04-25 04:17 55.26620 23.14925 32783 ft 496 kts 193°
2026-04-25 04:17 55.19773 23.13258 32781 ft 497 kts 193°
2026-04-25 04:18 55.12915 23.11600 32794 ft 498 kts 193°
2026-04-25 04:18 55.06054 23.09937 32786 ft 498 kts 193°
2026-04-25 04:19 54.99176 23.08265 32803 ft 499 kts 193°
2026-04-25 04:19 54.92341 23.06597 32789 ft 500 kts 193°
2026-04-25 04:20 54.85445 23.04929 32807 ft 500 kts 193°
2026-04-25 04:20 54.78544 23.03273 32799 ft 501 kts 193°
2026-04-25 04:21 54.71584 23.01605 32805 ft 502 kts 193°
2026-04-25 04:21 54.64717 22.99970 32801 ft 502 kts 193°
2026-04-25 04:22 54.57782 22.98336 32804 ft 503 kts 193°
2026-04-25 04:22 54.50852 22.96698 32802 ft 503 kts 193°
2026-04-25 04:23 54.43910 22.95046 32814 ft 504 kts 193°
2026-04-25 04:23 54.36956 22.93406 32815 ft 505 kts 193°
2026-04-25 04:24 54.29987 22.91796 32825 ft 505 kts 193°
2026-04-25 04:24 54.23019 22.90176 32821 ft 506 kts 193°
2026-04-25 04:25 54.16035 22.88535 32828 ft 506 kts 193°
2026-04-25 04:25 54.09081 22.86906 32888 ft 502 kts 195°
2026-04-25 04:25 54.05638 22.86125 32809 ft 489 kts 195°
2026-04-25 04:26 54.02269 22.85365 32826 ft 488 kts 195°
2026-04-25 04:26 53.95544 22.83802 32833 ft 487 kts 195°
2026-04-25 04:27 53.88819 22.82238 32830 ft 487 kts 195°
2026-04-25 04:27 53.82098 22.80696 32834 ft 488 kts 195°
2026-04-25 04:28 53.75372 22.79176 32829 ft 488 kts 195°
2026-04-25 04:28 53.68647 22.77649 32837 ft 488 kts 195°
2026-04-25 04:29 53.61916 22.76115 32832 ft 488 kts 195°
2026-04-25 04:29 53.55187 22.74603 32841 ft 488 kts 195°
2026-04-25 04:30 53.48453 22.73085 32845 ft 488 kts 195°
2026-04-25 04:30 53.41723 22.71567 32842 ft 488 kts 195°
2026-04-25 04:31 53.34992 22.70064 32852 ft 488 kts 195°
2026-04-25 04:31 53.28257 22.68573 32850 ft 488 kts 195°
2026-04-25 04:32 53.21537 22.67079 32848 ft 487 kts 195°
2026-04-25 04:32 53.14855 22.65587 32854 ft 487 kts 195°
2026-04-25 04:33 53.08140 22.64090 32856 ft 487 kts 194°
2026-04-25 04:33 53.01421 22.62615 32857 ft 486 kts 194°
2026-04-25 04:34 52.94717 22.61145 32862 ft 486 kts 194°
2026-04-25 04:34 52.88013 22.59679 32883 ft 485 kts 194°
2026-04-25 04:35 52.81319 22.58224 32872 ft 485 kts 194°
2026-04-25 04:35 52.74625 22.56775 32864 ft 485 kts 194°
2026-04-25 04:36 52.67944 22.55330 32875 ft 484 kts 194°
2026-04-25 04:36 52.61264 22.53873 32873 ft 484 kts 194°
2026-04-25 04:37 52.54578 22.52520 32874 ft 484 kts 193°
2026-04-25 04:37 52.47923 22.51303 32874 ft 484 kts 193°
2026-04-25 04:38 52.41229 22.50087 32876 ft 484 kts 193°
2026-04-25 04:38 52.34545 22.48830 32879 ft 483 kts 193°
2026-04-25 04:39 52.27865 22.47573 32883 ft 483 kts 193°
2026-04-25 04:39 52.21189 22.46318 32886 ft 482 kts 193°
2026-04-25 04:40 52.14516 22.45069 32887 ft 482 kts 193°
2026-04-25 04:40 52.07847 22.43826 32891 ft 482 kts 193°
2026-04-25 04:41 52.01190 22.42589 32899 ft 481 kts 193°
2026-04-25 04:41 51.94533 22.41353 32901 ft 481 kts 193°
2026-04-25 04:42 51.87877 22.40131 32908 ft 481 kts 193°
2026-04-25 04:42 51.81232 22.38911 32909 ft 480 kts 193°
2026-04-25 04:43 51.74627 22.37706 32911 ft 480 kts 193°
2026-04-25 04:43 51.67994 22.36500 32922 ft 480 kts 193°
2026-04-25 04:44 51.61366 22.35278 32928 ft 479 kts 193°
2026-04-25 04:44 51.54746 22.34063 32927 ft 479 kts 192°
2026-04-25 04:45 51.48128 22.32866 32931 ft 478 kts 192°
2026-04-25 04:45 51.41520 22.31682 32936 ft 478 kts 192°
2026-04-25 04:46 51.34912 22.30494 32938 ft 477 kts 192°
2026-04-25 04:46 51.28315 22.29298 32937 ft 477 kts 192°
2026-04-25 04:47 51.21721 22.28107 32940 ft 477 kts 192°
2026-04-25 04:47 51.15133 22.26936 32945 ft 476 kts 192°
2026-04-25 04:48 51.08549 22.25771 32950 ft 476 kts 192°
2026-04-25 04:48 51.01975 22.24607 32956 ft 475 kts 192°
2026-04-25 04:49 50.95401 22.23430 32961 ft 475 kts 192°
2026-04-25 04:49 50.88823 22.22265 32955 ft 475 kts 192°
2026-04-25 04:50 50.82251 22.21113 32963 ft 475 kts 192°
2026-04-25 04:50 50.75696 22.19809 32958 ft 474 kts 194°
2026-04-25 04:51 50.69159 22.18356 32967 ft 474 kts 194°
2026-04-25 04:51 50.62612 22.16906 32961 ft 475 kts 194°
2026-04-25 04:52 50.56046 22.15509 32963 ft 476 kts 194°
2026-04-25 04:52 50.49476 22.14146 32958 ft 477 kts 194°
2026-04-25 04:53 50.42894 22.12773 32975 ft 477 kts 194°
2026-04-25 04:53 50.36307 22.11387 32978 ft 478 kts 194°
2026-04-25 04:54 50.29752 22.10000 32986 ft 479 kts 194°
2026-04-25 04:54 50.23148 22.08616 32987 ft 479 kts 194°
2026-04-25 04:55 50.16527 22.07238 32988 ft 480 kts 194°
2026-04-25 04:55 50.09900 22.05872 32994 ft 480 kts 194°
2026-04-25 04:56 50.03273 22.04511 32997 ft 480 kts 194°
2026-04-25 04:56 49.96649 22.03143 32997 ft 481 kts 194°
2026-04-25 04:57 49.90013 22.01768 33003 ft 481 kts 194°
2026-04-25 04:57 49.83379 22.00404 33005 ft 481 kts 194°
2026-04-25 04:58 49.76752 21.99048 33015 ft 481 kts 194°
2026-04-25 04:58 49.71238 21.97925 33015 ft 481 kts 194°
2026-04-25 04:59 49.64606 21.96578 33015 ft 481 kts 194°
2026-04-25 04:59 49.57971 21.95227 33016 ft 481 kts 194°
2026-04-25 05:00 49.51342 21.93873 33016 ft 481 kts 194°
2026-04-25 05:00 49.44715 21.92537 33017 ft 481 kts 193°
2026-04-25 05:01 49.38080 21.91212 33015 ft 480 kts 193°
2026-04-25 05:01 49.31445 21.89877 33020 ft 480 kts 193°
2026-04-25 05:02 49.24816 21.88540 33020 ft 480 kts 193°
2026-04-25 05:02 49.18186 21.87211 33024 ft 480 kts 193°
2026-04-25 05:03 49.11559 21.85886 33021 ft 480 kts 193°
2026-04-25 05:03 49.04974 21.84589 33019 ft 480 kts 193°
2026-04-25 05:04 48.98347 21.83280 33011 ft 480 kts 193°
2026-04-25 05:04 48.91720 21.81981 33012 ft 482 kts 191°
2026-04-25 05:05 48.84951 21.82437 33008 ft 492 kts 176°
2026-04-25 05:05 48.78168 21.83896 33005 ft 492 kts 176°
2026-04-25 05:06 48.71382 21.85337 33006 ft 493 kts 176°
2026-04-25 05:06 48.64586 21.86775 33011 ft 493 kts 176°
2026-04-25 05:07 48.57787 21.88206 33005 ft 493 kts 176°
2026-04-25 05:07 48.50981 21.89629 33004 ft 494 kts 176°
2026-04-25 05:08 48.44167 21.91057 33000 ft 494 kts 176°
2026-04-25 05:08 48.37342 21.92474 33000 ft 495 kts 177°
2026-04-25 05:09 48.30532 21.94154 32999 ft 498 kts 173°
2026-04-25 05:09 48.23782 21.96284 33001 ft 499 kts 172°
2026-04-25 05:10 48.16991 21.98470 33010 ft 499 kts 172°
2026-04-25 05:10 48.10181 22.00520 33012 ft 499 kts 173°
2026-04-25 05:11 48.03362 22.02491 33014 ft 500 kts 173°
2026-04-25 05:11 47.96529 22.04476 33009 ft 500 kts 173°
2026-04-25 05:12 47.86285 22.07505 33009 ft 500 kts 173°
2026-04-25 05:12 47.79449 22.09508 33007 ft 500 kts 173°
2026-04-25 05:13 47.72606 22.11504 33006 ft 500 kts 172°
2026-04-25 05:13 47.65773 22.13487 33007 ft 500 kts 172°
2026-04-25 05:14 47.58936 22.15474 33015 ft 500 kts 172°
2026-04-25 05:15 47.48692 22.18451 33013 ft 500 kts 172°
2026-04-25 05:15 47.41872 22.20425 33017 ft 499 kts 172°
2026-04-25 05:16 47.35049 22.22388 33014 ft 499 kts 172°
2026-04-25 05:16 47.28277 22.24324 33019 ft 499 kts 172°
2026-04-25 05:17 47.21423 22.26292 33021 ft 498 kts 172°
2026-04-25 05:17 47.14617 22.28233 33022 ft 498 kts 172°
2026-04-25 05:18 47.07858 22.30163 33024 ft 498 kts 172°
2026-04-25 05:18 47.01005 22.32115 33024 ft 498 kts 172°
2026-04-25 05:19 46.94239 22.34016 33029 ft 498 kts 172°
2026-04-25 05:19 46.87440 22.35936 33033 ft 498 kts 172°
2026-04-25 05:20 46.80595 22.37875 33039 ft 498 kts 171°
2026-04-25 05:20 46.73796 22.39794 33041 ft 498 kts 171°
2026-04-25 05:21 46.67031 22.41700 33045 ft 498 kts 171°
2026-04-25 05:21 46.60230 22.43597 33052 ft 497 kts 171°
2026-04-25 05:22 46.53433 22.45486 33056 ft 497 kts 171°
2026-04-25 05:22 46.46640 22.47381 33060 ft 497 kts 171°
2026-04-25 05:23 46.39842 22.49273 33062 ft 497 kts 171°
2026-04-25 05:23 46.33042 22.51146 33062 ft 497 kts 171°
2026-04-25 05:24 46.26243 22.53021 33068 ft 497 kts 171°
2026-04-25 05:24 46.19449 22.54900 33066 ft 497 kts 171°
2026-04-25 05:25 46.12657 22.56772 33071 ft 497 kts 171°
2026-04-25 05:25 46.05870 22.58636 33082 ft 496 kts 171°
2026-04-25 05:26 45.99083 22.60494 33079 ft 496 kts 171°
2026-04-25 05:26 45.92299 22.62344 33074 ft 496 kts 171°
2026-04-25 05:27 45.85560 22.64169 33073 ft 496 kts 171°
2026-04-25 05:27 45.78794 22.66093 33083 ft 496 kts 169°
2026-04-25 05:28 45.72060 22.68236 33085 ft 495 kts 168°
2026-04-25 05:28 45.65330 22.70402 33088 ft 495 kts 168°
2026-04-25 05:29 45.58602 22.72502 33090 ft 495 kts 168°
2026-04-25 05:29 45.51873 22.74561 33090 ft 494 kts 168°
2026-04-25 05:30 45.45149 22.76620 33088 ft 494 kts 168°
2026-04-25 05:30 45.38431 22.78677 33091 ft 494 kts 168°
2026-04-25 05:31 45.31715 22.80745 33091 ft 493 kts 168°
2026-04-25 05:31 45.25012 22.82816 33091 ft 493 kts 168°
2026-04-25 05:32 45.18312 22.84862 33093 ft 492 kts 168°
2026-04-25 05:32 45.11610 22.86885 33096 ft 492 kts 168°
2026-04-25 05:33 45.04919 22.88911 33099 ft 492 kts 168°
2026-04-25 05:33 44.98271 22.90928 33096 ft 491 kts 168°
2026-04-25 05:34 44.91541 22.92963 33095 ft 491 kts 168°
2026-04-25 05:34 44.84904 22.94969 33093 ft 491 kts 168°
2026-04-25 05:35 44.78219 22.96967 33090 ft 491 kts 168°
2026-04-25 05:35 44.71541 22.98965 33088 ft 491 kts 168°
2026-04-25 05:36 44.64862 23.00959 33088 ft 491 kts 167°
2026-04-25 05:36 44.58189 23.02959 33084 ft 490 kts 168°
2026-04-25 05:37 44.51512 23.04954 33085 ft 490 kts 168°
2026-04-25 05:37 44.44834 23.06928 33079 ft 490 kts 168°
2026-04-25 05:38 44.38159 23.08903 33078 ft 490 kts 167°
2026-04-25 05:38 44.31491 23.10891 33076 ft 490 kts 167°
2026-04-25 05:39 44.24820 23.12861 33072 ft 490 kts 167°
2026-04-25 05:39 44.18152 23.14822 33074 ft 490 kts 167°
2026-04-25 05:40 44.11490 23.16782 33067 ft 489 kts 167°
2026-04-25 05:40 44.04822 23.18738 33071 ft 489 kts 167°
2026-04-25 05:41 43.98156 23.20674 33065 ft 489 kts 167°
2026-04-25 05:41 43.91499 23.22610 33066 ft 489 kts 167°
2026-04-25 05:42 43.84849 23.24549 33063 ft 488 kts 167°
2026-04-25 05:42 43.78234 23.26673 33061 ft 488 kts 164°
2026-04-25 05:43 43.72795 23.28732 33060 ft 487 kts 163°
2026-04-25 05:43 43.66263 23.31269 33054 ft 487 kts 163°
2026-04-25 05:44 43.59708 23.33733 33052 ft 487 kts 164°
2026-04-25 05:44 43.53148 23.36115 33056 ft 487 kts 164°
2026-04-25 05:45 43.46588 23.38471 33056 ft 487 kts 164°
2026-04-25 05:45 43.40080 23.40818 33057 ft 486 kts 164°
2026-04-25 05:46 43.33540 23.43199 33058 ft 486 kts 164°
2026-04-25 05:46 43.27001 23.45579 33059 ft 485 kts 164°
2026-04-25 05:47 43.20473 23.47944 33064 ft 485 kts 164°
2026-04-25 05:47 43.13948 23.50294 33064 ft 484 kts 164°
2026-04-25 05:48 43.07432 23.52648 33069 ft 484 kts 164°
2026-04-25 05:48 43.00920 23.54990 33082 ft 483 kts 164°
2026-04-25 05:49 42.94416 23.57310 33091 ft 483 kts 164°
2026-04-25 05:49 42.87917 23.59627 33104 ft 482 kts 164°
2026-04-25 05:50 42.81468 23.61937 33110 ft 482 kts 164°
2026-04-25 05:50 42.74981 23.64249 33113 ft 481 kts 164°
2026-04-25 05:51 42.68503 23.66537 33115 ft 481 kts 164°
2026-04-25 05:51 42.62029 23.68832 33112 ft 480 kts 164°
2026-04-25 05:52 42.55572 23.71157 33104 ft 479 kts 163°
2026-04-25 05:52 42.49190 23.73737 33094 ft 478 kts 161°
2026-04-25 05:53 42.42848 23.76444 33085 ft 478 kts 161°
2026-04-25 05:53 42.36499 23.79100 33081 ft 477 kts 161°
2026-04-25 05:54 42.30135 23.81699 33081 ft 477 kts 161°
2026-04-25 05:54 42.20606 23.85570 33080 ft 477 kts 161°
2026-04-25 05:55 42.14261 23.88152 33080 ft 476 kts 161°
2026-04-25 05:55 42.07922 23.90738 33076 ft 476 kts 161°
2026-04-25 05:56 42.01579 23.93311 33079 ft 476 kts 161°
2026-04-25 05:56 41.95241 23.95871 33081 ft 475 kts 161°
2026-04-25 05:57 41.88912 23.98427 33082 ft 475 kts 161°
2026-04-25 05:57 41.82622 24.00962 33086 ft 475 kts 161°
2026-04-25 05:58 41.76300 24.03497 33085 ft 474 kts 161°
2026-04-25 05:58 41.69974 24.06017 33092 ft 474 kts 161°
2026-04-25 05:59 41.63661 24.08558 33095 ft 473 kts 161°
2026-04-25 05:59 41.57353 24.11087 33094 ft 473 kts 161°
2026-04-25 06:00 41.51091 24.13755 33097 ft 472 kts 158°
2026-04-25 06:00 41.44987 24.16963 33094 ft 470 kts 155°
2026-04-25 06:01 41.38943 24.20299 33092 ft 470 kts 155°
2026-04-25 06:01 41.32905 24.23503 33088 ft 470 kts 156°
2026-04-25 06:02 41.26802 24.26613 33090 ft 469 kts 157°
2026-04-25 06:02 41.20702 24.29708 33090 ft 469 kts 157°
2026-04-25 06:03 41.14623 24.32833 33088 ft 468 kts 156°
2026-04-25 06:03 41.08548 24.35967 33084 ft 468 kts 156°
2026-04-25 06:04 41.02480 24.39082 33078 ft 467 kts 156°
2026-04-25 06:04 40.96413 24.42182 33074 ft 467 kts 157°
2026-04-25 06:05 40.90347 24.45263 33083 ft 467 kts 157°
2026-04-25 06:05 40.84286 24.48337 33090 ft 466 kts 157°
2026-04-25 06:06 40.78238 24.51419 33081 ft 466 kts 156°
2026-04-25 06:06 40.72188 24.54491 33075 ft 465 kts 157°
2026-04-25 06:07 40.66144 24.57540 33075 ft 465 kts 157°
2026-04-25 06:07 40.60142 24.60568 33486 ft 464 kts 157°
2026-04-25 06:08 40.57131 24.62094 33847 ft 463 kts 157°
2026-04-25 06:08 40.54134 24.63610 34166 ft 461 kts 157°
2026-04-25 06:08 40.51136 24.65118 34438 ft 461 kts 157°
2026-04-25 06:08 40.48141 24.66625 34693 ft 461 kts 156°
2026-04-25 06:09 40.45148 24.68131 34937 ft 461 kts 156°
2026-04-25 06:09 40.42149 24.69630 35039 ft 461 kts 156°
2026-04-25 06:09 40.36166 24.72630 35063 ft 460 kts 156°
2026-04-25 06:10 40.30192 24.75626 35060 ft 459 kts 156°
2026-04-25 06:10 40.24222 24.78591 35061 ft 458 kts 156°
2026-04-25 06:11 40.18263 24.81556 35061 ft 458 kts 156°
2026-04-25 06:11 40.12316 24.84527 35066 ft 458 kts 156°
2026-04-25 06:12 40.06361 24.87486 35074 ft 458 kts 156°
2026-04-25 06:12 40.00403 24.90432 35078 ft 458 kts 156°
2026-04-25 06:13 39.94451 24.93370 35083 ft 457 kts 156°
2026-04-25 06:14 39.85522 24.97767 35084 ft 457 kts 156°
2026-04-25 06:14 39.79577 25.00694 35082 ft 457 kts 156°
2026-04-25 06:15 39.73637 25.03621 35081 ft 457 kts 156°
2026-04-25 06:15 39.67694 25.06536 35078 ft 456 kts 156°
2026-04-25 06:16 39.61742 25.09445 35076 ft 456 kts 156°
2026-04-25 06:16 39.55888 25.12474 35072 ft 455 kts 153°
2026-04-25 06:17 39.50165 25.15966 35074 ft 454 kts 150°
2026-04-25 06:17 39.44493 25.19590 35071 ft 454 kts 150°
2026-04-25 06:18 39.38791 25.23122 35068 ft 454 kts 151°
2026-04-25 06:18 39.33050 25.26562 35066 ft 454 kts 152°
2026-04-25 06:19 39.27312 25.29979 35066 ft 454 kts 152°
2026-04-25 06:19 39.21585 25.33417 35059 ft 454 kts 151°
2026-04-25 06:20 39.15864 25.36847 35057 ft 453 kts 151°
2026-04-25 06:20 39.10161 25.40292 35054 ft 453 kts 151°
2026-04-25 06:21 39.04447 25.43730 35054 ft 453 kts 152°
2026-04-25 06:21 38.98764 25.47119 35052 ft 453 kts 152°
2026-04-25 06:22 38.93053 25.50530 35050 ft 452 kts 152°
2026-04-25 06:22 38.87337 25.53931 35043 ft 452 kts 152°
2026-04-25 06:23 38.81620 25.57320 35043 ft 452 kts 152°
2026-04-25 06:23 38.75912 25.60708 35045 ft 452 kts 152°
2026-04-25 06:24 38.70206 25.64099 35039 ft 452 kts 152°
2026-04-25 06:24 38.64489 25.67469 35027 ft 452 kts 153°
2026-04-25 06:25 38.58772 25.70844 35045 ft 452 kts 153°
2026-04-25 06:25 38.53061 25.74224 35028 ft 452 kts 153°
2026-04-25 06:26 38.47343 25.77583 35021 ft 452 kts 154°
2026-04-25 06:26 38.41623 25.80937 35016 ft 452 kts 154°
2026-04-25 06:27 38.35901 25.84283 35018 ft 452 kts 154°
2026-04-25 06:27 38.30181 25.87634 35007 ft 452 kts 154°
2026-04-25 06:28 38.25432 25.90414 35008 ft 452 kts 155°
2026-04-25 06:28 38.19595 25.93372 35017 ft 452 kts 160°
2026-04-25 06:29 38.13642 25.95945 35013 ft 451 kts 161°
2026-04-25 06:29 38.07706 25.98510 35017 ft 450 kts 160°
2026-04-25 06:30 38.01808 26.01180 35020 ft 450 kts 160°
2026-04-25 06:30 37.95933 26.03885 35026 ft 449 kts 160°
2026-04-25 06:31 37.90065 26.06552 35024 ft 447 kts 160°
2026-04-25 06:31 37.84211 26.09206 35023 ft 446 kts 160°
2026-04-25 06:32 37.78362 26.11844 35014 ft 446 kts 160°
2026-04-25 06:32 37.72522 26.14478 35015 ft 446 kts 160°
2026-04-25 06:33 37.66718 26.17090 35012 ft 446 kts 161°
2026-04-25 06:33 37.60866 26.19710 35011 ft 446 kts 161°
2026-04-25 06:34 37.55018 26.22331 35007 ft 446 kts 161°
2026-04-25 06:34 37.49165 26.24955 35004 ft 447 kts 161°
2026-04-25 06:35 37.43307 26.27585 35000 ft 447 kts 161°
2026-04-25 06:35 37.37440 26.30201 35000 ft 448 kts 161°
2026-04-25 06:36 37.31557 26.32808 35002 ft 448 kts 161°
2026-04-25 06:36 37.25669 26.35420 34974 ft 447 kts 161°
2026-04-25 06:36 37.22740 26.36721 34477 ft 446 kts 161°
2026-04-25 06:37 37.19813 26.38021 33870 ft 446 kts 161°
2026-04-25 06:37 37.16887 26.39321 33172 ft 447 kts 161°
2026-04-25 06:37 37.13956 26.40624 32460 ft 447 kts 161°
2026-04-25 06:37 37.11018 26.41929 31738 ft 448 kts 161°
2026-04-25 06:38 37.08079 26.43232 31026 ft 449 kts 161°
2026-04-25 06:38 37.05129 26.44535 30310 ft 450 kts 161°
2026-04-25 06:38 37.02182 26.45836 29567 ft 449 kts 161°
2026-04-25 06:38 36.99248 26.47132 28952 ft 444 kts 161°
2026-04-25 06:39 36.96350 26.48411 28260 ft 439 kts 160°
2026-04-25 06:39 36.93534 26.49832 27554 ft 435 kts 152°
2026-04-25 06:39 36.90999 26.51843 26881 ft 430 kts 141°
2026-04-25 06:39 36.88837 26.54389 26215 ft 426 kts 130°
2026-04-25 06:40 36.87135 26.57323 25582 ft 422 kts 120°
2026-04-25 06:40 36.85868 26.60602 24940 ft 417 kts 113°
2026-04-25 06:40 36.84740 26.63922 24316 ft 413 kts 113°
2026-04-25 06:40 36.83610 26.67209 23699 ft 409 kts 113°
2026-04-25 06:41 36.82489 26.70453 23025 ft 405 kts 113°
2026-04-25 06:41 36.81376 26.73669 22368 ft 402 kts 113°
2026-04-25 06:41 36.80269 26.76859 21795 ft 399 kts 114°
2026-04-25 06:41 36.79173 26.80025 21244 ft 396 kts 114°
2026-04-25 06:42 36.78088 26.83166 20717 ft 393 kts 114°
2026-04-25 06:42 36.77010 26.86286 20212 ft 391 kts 114°
2026-04-25 06:42 36.75937 26.89389 19726 ft 388 kts 114°
2026-04-25 06:42 36.74873 26.92470 19253 ft 386 kts 114°
2026-04-25 06:43 36.73816 26.95534 18771 ft 383 kts 115°
2026-04-25 06:43 36.72764 26.98572 18305 ft 381 kts 115°
2026-04-25 06:43 36.71715 27.01595 17765 ft 378 kts 115°
2026-04-25 06:43 36.70675 27.04589 17238 ft 375 kts 115°
2026-04-25 06:44 36.69640 27.07556 16717 ft 372 kts 115°
2026-04-25 06:44 36.68616 27.10498 16184 ft 369 kts 115°
2026-04-25 06:44 36.67599 27.13418 15667 ft 366 kts 116°
2026-04-25 06:44 36.66588 27.16314 15150 ft 363 kts 116°
2026-04-25 06:45 36.65585 27.19183 14636 ft 360 kts 116°
2026-04-25 06:45 36.64586 27.22033 14131 ft 358 kts 116°
2026-04-25 06:45 36.63593 27.24861 13621 ft 355 kts 116°
2026-04-25 06:45 36.62609 27.27666 13094 ft 352 kts 116°
2026-04-25 06:46 36.61654 27.30400 12950 ft 337 kts 116°
2026-04-25 06:46 36.60735 27.33027 12812 ft 324 kts 116°
2026-04-25 06:46 36.59851 27.35549 12679 ft 312 kts 116°
2026-04-25 06:46 36.59001 27.37972 12554 ft 300 kts 116°
2026-04-25 06:47 36.58175 27.40322 12334 ft 293 kts 116°
2026-04-25 06:47 36.57362 27.42630 11987 ft 290 kts 116°
2026-04-25 06:47 36.56554 27.44917 11642 ft 288 kts 116°
2026-04-25 06:47 36.55750 27.47196 11285 ft 287 kts 116°
2026-04-25 06:48 36.54948 27.49463 10933 ft 285 kts 117°
2026-04-25 06:48 36.54149 27.51711 10602 ft 283 kts 117°
2026-04-25 06:48 36.53355 27.53947 10258 ft 282 kts 117°
2026-04-25 06:48 36.52564 27.56174 9907 ft 281 kts 117°
2026-04-25 06:49 36.51826 27.58242 9579 ft 279 kts 117°
2026-04-25 06:49 36.51048 27.60437 9072 ft 276 kts 116°
2026-04-25 06:49 36.50288 27.62588 8547 ft 274 kts 116°
2026-04-25 06:50 36.49521 27.64749 8028 ft 272 kts 116°
2026-04-25 06:50 36.48761 27.66887 7799 ft 259 kts 116°
2026-04-25 06:50 36.48059 27.68872 7664 ft 243 kts 116°
2026-04-25 06:50 36.47394 27.70752 7276 ft 235 kts 116°
2026-04-25 06:51 36.46748 27.72574 6778 ft 233 kts 115°
2026-04-25 06:51 36.46277 27.74501 6280 ft 233 kts 106°
2026-04-25 06:51 36.45901 27.76452 5774 ft 231 kts 105°
2026-04-25 06:51 36.45529 27.78376 5291 ft 228 kts 105°
2026-04-25 06:52 36.45162 27.80274 4906 ft 221 kts 105°
2026-04-25 06:52 36.44659 27.82006 4646 ft 210 kts 124°
2026-04-25 06:52 36.43622 27.83236 4319 ft 207 kts 148°
2026-04-25 06:52 36.42275 27.83847 3960 ft 208 kts 169°
2026-04-25 06:53 36.40824 27.83835 3599 ft 209 kts 179°
2026-04-25 06:53 36.39373 27.83819 3255 ft 207 kts 174°
2026-04-25 06:53 36.37947 27.83957 3026 ft 204 kts 170°
2026-04-25 06:53 36.36541 27.84223 3014 ft 204 kts 165°
2026-04-25 06:54 36.35290 27.84962 3012 ft 200 kts 136°
2026-04-25 06:54 36.34546 27.86391 3012 ft 200 kts 107°
2026-04-25 06:54 36.34530 27.88113 3008 ft 206 kts 77°
2026-04-25 06:54 36.35009 27.89795 2831 ft 207 kts 72°
2026-04-25 06:55 36.35506 27.91418 2607 ft 195 kts 73°
2026-04-25 06:55 36.35955 27.92916 2346 ft 177 kts 73°
2026-04-25 06:55 36.36362 27.94282 2134 ft 163 kts 73°
2026-04-25 06:55 36.36738 27.95539 1925 ft 150 kts 73°
2026-04-25 06:56 36.37090 27.96737 1725 ft 147 kts 73°
2026-04-25 06:56 36.37438 27.97917 1532 ft 145 kts 72°
2026-04-25 06:56 36.37789 27.99085 1337 ft 144 kts 71°
2026-04-25 06:56 36.38136 28.00242 1143 ft 143 kts 72°
2026-04-25 06:57 36.38467 28.01403 985 ft 142 kts 73°
2026-04-25 06:57 36.38785 28.02573 847 ft 146 kts 72°
2026-04-25 06:57 36.39119 28.03750 646 ft 144 kts 71°
2026-04-25 06:57 36.39457 28.04905 423 ft 141 kts 70°
2026-04-25 06:58 36.39785 28.06044 250 ft 140 kts 71°
2026-04-25 06:58 36.40117 28.07175 48 ft 138 kts 71°
2026-04-25 06:58 36.40405 28.08166 28 ft 105 kts 70°
2026-04-25 06:58 36.40596 28.08817 29 ft 55 kts 70°
2026-04-25 06:59 36.40675 28.09084 31 ft 15 kts 70°
2026-04-25 06:59 36.40656 28.09162 31 ft 10 kts 178°
2026-04-25 06:59 36.40587 28.09109 29 ft 12 kts 209°
2026-04-25 06:59 36.40525 28.09073 29 ft 7 kts 205°
2026-04-25 07:00 36.40522 28.09071 28 ft 0 kts 204°
2026-04-25 07:02 36.40514 28.09066 28 ft 2 kts 204°
2026-04-25 07:02 36.40488 28.09052 28 ft 6 kts 204°
2026-04-25 07:02 36.40442 28.09026 28 ft 8 kts 204°
2026-04-25 07:02 36.40402 28.08973 28 ft 9 kts 247°
2026-04-25 07:03 36.40368 28.08959 28 ft 5 kts 161°
2026-04-25 07:03 36.40337 28.08974 28 ft 4 kts 159°
2026-04-25 07:03 36.40326 28.08980 28 ft 0 kts 160°